TimeMDT,TemperatureF,Dew PointF,Humidity,Sea Level PressureIn,VisibilityMPH,Wind Direction,Wind SpeedMPH,Gust SpeedMPH,PrecipitationIn,Events,Conditions,WindDirDegrees,DateUTC
12:56 AM,46.9,28.9,50,29.98,10.0,SW,6.9,-,N/A,,Overcast,220,2012-10-08 06:56:00
1:56 AM,48.0,28.9,48,29.99,10.0,SW,6.9,-,N/A,,Overcast,230,2012-10-08 07:56:00
2:56 AM,48.0,28.9,48,29.99,10.0,WSW,8.1,-,N/A,,Partly Cloudy,250,2012-10-08 08:56:00
3:56 AM,48.0,32.0,54,29.99,10.0,West,6.9,-,0.00,,Overcast,260,2012-10-08 09:56:00
4:56 AM,46.9,34.0,61,30.00,10.0,NW,6.9,-,0.00,Rain,Light Rain,310,2012-10-08 10:56:00
5:56 AM,45.0,39.9,82,30.04,9.0,NNW,10.4,-,0.01,Rain,Light Rain,340,2012-10-08 11:56:00
6:15 AM,44.6,41.0,87,29.96,10.0,North,8.1,-,0.01,Rain,Light Rain,360,2012-10-08 12:15:00
6:37 AM,44.6,42.8,93,29.96,10.0,North,10.4,-,0.02,Rain,Light Rain,350,2012-10-08 12:37:00
6:56 AM,45.0,42.1,90,30.05,10.0,North,8.1,-,0.02,Rain,Light Rain,360,2012-10-08 12:56:00
7:22 AM,44.6,42.8,93,29.96,10.0,Calm,Calm,-,0.01,Rain,Light Rain,0,2012-10-08 13:22:00
7:48 AM,44.6,42.8,93,29.96,10.0,Calm,Calm,-,0.02,Rain,Light Rain,0,2012-10-08 13:48:00
7:56 AM,44.1,42.1,93,30.06,10.0,Calm,Calm,-,0.02,Rain,Light Rain,0,2012-10-08 13:56:00
8:11 AM,44.6,42.8,93,29.97,8.0,Calm,Calm,-,0.01,Rain,Light Rain,0,2012-10-08 14:11:00
8:20 AM,44.6,42.8,93,29.97,8.0,Calm,Calm,-,0.02,Rain,Light Rain,0,2012-10-08 14:20:00
8:23 AM,44.6,42.8,93,29.97,8.0,Calm,Calm,-,0.02,Rain,Light Rain,0,2012-10-08 14:23:00
8:38 AM,44.6,42.8,93,29.97,5.0,Calm,Calm,-,0.03,Rain,Light Rain,0,2012-10-08 14:38:00
8:48 AM,44.6,42.8,93,29.97,5.0,Calm,Calm,-,0.04,Rain,Light Rain,0,2012-10-08 14:48:00
8:56 AM,44.1,42.1,93,30.09,6.0,Calm,Calm,-,0.04,Rain,Light Rain,0,2012-10-08 14:56:00
9:56 AM,44.1,39.9,85,30.10,9.0,Calm,Calm,-,0.05,Rain,Light Rain,0,2012-10-08 15:56:00
10:56 AM,44.1,42.1,93,30.10,10.0,South,5.8,-,0.02,Rain,Light Rain,190,2012-10-08 16:56:00
11:56 AM,44.1,41.0,89,30.09,8.0,NNW,6.9,-,0.02,Rain,Light Rain,330,2012-10-08 17:56:00
12:22 PM,42.8,39.2,87,29.97,6.0,NNE,5.8,-,0.02,Rain,Light Rain,20,2012-10-08 18:22:00
12:41 PM,42.8,39.2,87,29.97,7.0,NNE,3.5,-,0.03,Rain,Light Rain,20,2012-10-08 18:41:00
12:56 PM,43.0,39.9,89,30.09,10.0,Calm,Calm,-,0.03,Rain,Light Rain,0,2012-10-08 18:56:00
1:15 PM,42.8,39.2,87,29.97,10.0,Calm,Calm,-,0.00,Rain,Light Rain,0,2012-10-08 19:15:00
1:31 PM,42.8,39.2,87,29.96,9.0,Calm,Calm,-,0.00,Rain,Light Rain,0,2012-10-08 19:31:00
1:54 PM,42.8,39.2,87,29.95,9.0,North,6.9,-,0.01,Rain,Light Rain,350,2012-10-08 19:54:00
1:56 PM,43.0,39.9,89,30.07,9.0,North,6.9,-,0.01,Rain,Light Rain,360,2012-10-08 19:56:00
2:46 PM,42.8,39.2,87,29.96,4.0,NNE,4.6,-,0.02,Rain,Light Rain,20,2012-10-08 20:46:00
2:56 PM,42.1,39.9,92,30.09,5.0,NNE,4.6,-,0.02,Rain,Light Rain,30,2012-10-08 20:56:00
3:10 PM,42.8,39.2,87,29.96,4.0,NNE,4.6,-,0.01,Rain,Light Rain,30,2012-10-08 21:10:00
3:22 PM,42.8,39.2,87,29.96,4.0,NE,8.1,-,0.02,Rain,Light Rain,40,2012-10-08 21:22:00
3:35 PM,41.0,39.2,93,29.96,3.0,North,12.7,-,0.03,Rain,Light Rain,10,2012-10-08 21:35:00
3:56 PM,41.0,39.0,93,30.09,6.0,NNE,9.2,-,0.04,Rain,Light Rain,30,2012-10-08 21:56:00
4:13 PM,41.0,39.2,93,29.97,5.0,North,9.2,-,0.01,Rain,Light Rain,10,2012-10-08 22:13:00
4:29 PM,41.0,37.4,87,29.97,6.0,North,10.4,-,0.01,Rain,Light Rain,350,2012-10-08 22:29:00
4:36 PM,41.0,37.4,87,29.97,8.0,North,8.1,-,0.02,Rain,Light Rain,350,2012-10-08 22:36:00
4:56 PM,41.0,37.9,89,30.11,6.0,North,9.2,-,0.03,Rain,Light Rain,350,2012-10-08 22:56:00
5:12 PM,41.0,37.4,87,29.98,7.0,North,10.4,-,0.01,Rain,Light Rain,360,2012-10-08 23:12:00
5:56 PM,39.0,37.0,93,30.14,7.0,North,13.8,-,0.03,Rain,Light Rain,350,2012-10-08 23:56:00
6:12 PM,39.2,35.6,87,30.01,7.0,NNE,11.5,-,0.01,Rain,Light Rain,20,2012-10-09 00:12:00
6:28 PM,39.2,37.4,93,30.02,6.0,NNE,8.1,-,0.02,Rain,Light Rain,30,2012-10-09 00:28:00
6:39 PM,39.2,37.4,93,30.02,10.0,NNE,5.8,-,0.03,Rain,Light Rain,20,2012-10-09 00:39:00
6:47 PM,39.2,37.4,93,30.03,9.0,North,5.8,-,0.03,Rain,Light Rain,10,2012-10-09 00:47:00
6:56 PM,39.0,37.0,93,30.17,10.0,North,9.2,-,0.03,Rain,Light Rain,350,2012-10-09 00:56:00
7:11 PM,39.2,35.6,87,30.04,10.0,North,4.6,-,0.01,Rain,Light Rain,360,2012-10-09 01:11:00
7:23 PM,39.2,35.6,87,30.05,10.0,NNW,4.6,-,0.02,Rain,Light Rain,330,2012-10-09 01:23:00
7:56 PM,39.0,36.0,89,30.20,10.0,WNW,3.5,-,0.03,Rain,Light Rain,300,2012-10-09 01:56:00
8:56 PM,37.9,35.1,89,30.22,10.0,West,5.8,-,0.01,Rain,Light Rain,280,2012-10-09 02:56:00
9:23 PM,37.4,35.6,93,30.08,10.0,WNW,4.6,-,0.00,Rain,Light Rain,290,2012-10-09 03:23:00
9:56 PM,37.9,34.0,86,30.24,10.0,West,4.6,-,0.00,,Overcast,280,2012-10-09 03:56:00
10:56 PM,37.9,35.1,89,30.23,10.0,SSW,6.9,-,0.00,,Overcast,210,2012-10-09 04:56:00
11:56 PM,37.0,35.1,93,30.22,10.0,SSW,9.2,-,N/A,,Overcast,210,2012-10-09 05:56:00